BTO5107 SCPM-SCIE

Flight info

Callsign BTO5107
Flight time 1h 30m
Altitude 3500
Route D
Aircraft C172/L-VGD/A

Departure

Time 2026-05-06 17:05
Airport Pichilemu Airport (SCPM)

Arrival

Time 2026-05-06 18:35
Airport Carriel Sur International Airport (SCIE)
Time Latitude Longitude Altitude Speed Heading
2026-05-06 17:04 -34.45598 -72.04366 2099 ft 106 kts 204°
2026-05-06 17:05 -34.46278 -72.04726 2275 ft 106 kts 202°
2026-05-06 17:05 -34.46957 -72.05067 2450 ft 105 kts 202°
2026-05-06 17:05 -34.47637 -72.05396 2625 ft 105 kts 200°
2026-05-06 17:05 -34.48312 -72.05711 2799 ft 104 kts 200°
2026-05-06 17:06 -34.48984 -72.06017 2972 ft 104 kts 200°
2026-05-06 17:06 -34.49657 -72.06319 3147 ft 103 kts 199°
2026-05-06 17:06 -34.50333 -72.06619 3322 ft 103 kts 199°
2026-05-06 17:06 -34.50997 -72.06911 3495 ft 102 kts 199°
2026-05-06 17:07 -34.51685 -72.07210 3579 ft 110 kts 199°
2026-05-06 17:07 -34.52434 -72.07535 3588 ft 118 kts 198°
2026-05-06 17:07 -34.53231 -72.07880 3587 ft 123 kts 199°
2026-05-06 17:07 -34.54047 -72.08231 3585 ft 125 kts 199°
2026-05-06 17:08 -34.54875 -72.08586 3584 ft 126 kts 199°
2026-05-06 17:08 -34.55700 -72.08936 3583 ft 127 kts 198°
2026-05-06 17:08 -34.56535 -72.09292 3582 ft 125 kts 198°
2026-05-06 17:08 -34.57345 -72.09637 3582 ft 124 kts 198°
2026-05-06 17:09 -34.58155 -72.09982 3582 ft 123 kts 199°
2026-05-06 17:09 -34.58963 -72.10324 3582 ft 123 kts 199°
2026-05-06 17:09 -34.59776 -72.10671 3582 ft 122 kts 198°
2026-05-06 17:09 -34.60577 -72.11014 3581 ft 123 kts 198°
2026-05-06 17:10 -34.61379 -72.11356 3583 ft 123 kts 198°
2026-05-06 17:10 -34.62146 -72.11683 3747 ft 112 kts 198°
2026-05-06 17:10 -34.62862 -72.11988 3917 ft 105 kts 198°
2026-05-06 17:10 -34.63534 -72.12274 4087 ft 101 kts 197°
2026-05-06 17:11 -34.64181 -72.12549 4258 ft 97 kts 198°
2026-05-06 17:11 -34.64814 -72.12816 4432 ft 96 kts 198°
2026-05-06 17:11 -34.65453 -72.13086 4610 ft 96 kts 199°
2026-05-06 17:11 -34.66083 -72.13354 4783 ft 96 kts 197°
2026-05-06 17:12 -34.66708 -72.13621 4956 ft 96 kts 197°
2026-05-06 17:12 -34.67336 -72.13889 5131 ft 95 kts 197°
2026-05-06 17:12 -34.67952 -72.14150 5303 ft 94 kts 197°
2026-05-06 17:12 -34.68573 -72.14415 5478 ft 94 kts 198°
2026-05-06 17:13 -34.69189 -72.14676 5652 ft 93 kts 198°
2026-05-06 17:13 -34.69799 -72.14937 5826 ft 92 kts 198°
2026-05-06 17:13 -34.70398 -72.15192 5998 ft 92 kts 197°
2026-05-06 17:13 -34.70994 -72.15447 6171 ft 91 kts 198°
2026-05-06 17:14 -34.71591 -72.15700 6345 ft 90 kts 199°
2026-05-06 17:14 -34.72181 -72.15951 6519 ft 89 kts 199°
2026-05-06 17:14 -34.72756 -72.16199 6690 ft 88 kts 199°
2026-05-06 17:14 -34.73330 -72.16446 6863 ft 87 kts 199°
2026-05-06 17:15 -34.73897 -72.16686 7034 ft 86 kts 197°
2026-05-06 17:15 -34.74493 -72.16942 7098 ft 96 kts 199°
2026-05-06 17:15 -34.75165 -72.17229 7102 ft 107 kts 199°
2026-05-06 17:15 -34.75893 -72.17543 7097 ft 114 kts 198°
2026-05-06 17:16 -34.76658 -72.17872 7093 ft 118 kts 198°
2026-05-06 17:16 -34.77436 -72.18207 7089 ft 119 kts 199°
2026-05-06 17:16 -34.78213 -72.18541 7085 ft 120 kts 199°
2026-05-06 17:16 -34.79009 -72.18884 7081 ft 120 kts 199°
2026-05-06 17:17 -34.79798 -72.19222 7077 ft 120 kts 199°
2026-05-06 17:17 -34.80592 -72.19563 7074 ft 120 kts 199°
2026-05-06 17:17 -34.81374 -72.19898 7070 ft 120 kts 199°
2026-05-06 17:17 -34.82167 -72.20239 7066 ft 120 kts 199°
2026-05-06 17:18 -34.82958 -72.20578 7061 ft 120 kts 199°
2026-05-06 17:18 -34.83746 -72.20917 7057 ft 120 kts 199°
2026-05-06 17:18 -34.84526 -72.21250 7053 ft 120 kts 199°
2026-05-06 17:18 -34.85309 -72.21587 7048 ft 119 kts 199°
2026-05-06 17:19 -34.86092 -72.21922 7044 ft 119 kts 199°
2026-05-06 17:19 -34.86882 -72.22261 7039 ft 119 kts 199°
2026-05-06 17:19 -34.87660 -72.22595 7034 ft 119 kts 199°
2026-05-06 17:19 -34.88441 -72.22931 7030 ft 119 kts 199°
2026-05-06 17:20 -34.89217 -72.23264 7028 ft 118 kts 199°
2026-05-06 17:20 -34.89994 -72.23598 7027 ft 118 kts 199°
2026-05-06 17:20 -34.90775 -72.23933 7026 ft 118 kts 199°
2026-05-06 17:20 -34.91547 -72.24265 7025 ft 118 kts 199°
2026-05-06 17:21 -34.92317 -72.24596 7025 ft 117 kts 199°
2026-05-06 17:21 -34.93087 -72.24927 7025 ft 117 kts 199°
2026-05-06 17:21 -34.93858 -72.25259 7025 ft 117 kts 199°
2026-05-06 17:21 -34.94624 -72.25588 7025 ft 117 kts 199°
2026-05-06 17:22 -34.95389 -72.25918 7025 ft 117 kts 199°
2026-05-06 17:22 -34.96154 -72.26247 7025 ft 117 kts 199°
2026-05-06 17:22 -34.96922 -72.26577 7025 ft 117 kts 199°
2026-05-06 17:22 -34.97683 -72.26904 7025 ft 117 kts 199°
2026-05-06 17:23 -34.98456 -72.27237 7025 ft 116 kts 199°
2026-05-06 17:23 -34.99214 -72.27563 7025 ft 116 kts 199°
2026-05-06 17:23 -34.99975 -72.27891 7025 ft 116 kts 199°
2026-05-06 17:23 -35.00744 -72.28223 7025 ft 116 kts 199°
2026-05-06 17:24 -35.01501 -72.28549 7025 ft 116 kts 199°
2026-05-06 17:24 -35.02269 -72.28879 7025 ft 116 kts 198°
2026-05-06 17:24 -35.03031 -72.29208 7025 ft 116 kts 198°
2026-05-06 17:24 -35.03788 -72.29534 7025 ft 116 kts 198°
2026-05-06 17:25 -35.04549 -72.29862 7025 ft 116 kts 198°
2026-05-06 17:25 -35.05302 -72.30187 7024 ft 116 kts 198°
2026-05-06 17:25 -35.06064 -72.30515 7024 ft 116 kts 198°
2026-05-06 17:25 -35.06824 -72.30843 7024 ft 116 kts 198°
2026-05-06 17:26 -35.07578 -72.31168 7024 ft 116 kts 198°
2026-05-06 17:26 -35.08342 -72.31499 7024 ft 116 kts 198°
2026-05-06 17:26 -35.09094 -72.31823 7024 ft 116 kts 198°
2026-05-06 17:26 -35.09860 -72.32153 7024 ft 116 kts 198°
2026-05-06 17:27 -35.10616 -72.32480 7027 ft 116 kts 198°
2026-05-06 17:27 -35.11378 -72.32809 7028 ft 116 kts 198°
2026-05-06 17:27 -35.12134 -72.33135 7028 ft 116 kts 198°
2026-05-06 17:27 -35.12897 -72.33465 7028 ft 116 kts 198°
2026-05-06 17:28 -35.13661 -72.33795 7028 ft 116 kts 198°
2026-05-06 17:28 -35.14420 -72.34123 7028 ft 116 kts 198°
2026-05-06 17:28 -35.15185 -72.34454 7027 ft 116 kts 198°
2026-05-06 17:28 -35.15951 -72.34785 7027 ft 116 kts 198°
2026-05-06 17:29 -35.16708 -72.35113 7027 ft 116 kts 198°
2026-05-06 17:29 -35.17478 -72.35446 7027 ft 116 kts 198°
2026-05-06 17:29 -35.18232 -72.35772 7027 ft 116 kts 198°
2026-05-06 17:29 -35.18996 -72.36103 7027 ft 116 kts 198°
2026-05-06 17:30 -35.19764 -72.36435 7027 ft 116 kts 198°
2026-05-06 17:30 -35.20528 -72.36766 7027 ft 116 kts 198°
2026-05-06 17:30 -35.21292 -72.37097 7027 ft 116 kts 198°
2026-05-06 17:30 -35.22051 -72.37425 7027 ft 116 kts 198°
2026-05-06 17:31 -35.22812 -72.37755 7027 ft 116 kts 198°
2026-05-06 17:31 -35.23579 -72.38088 7027 ft 116 kts 198°
2026-05-06 17:31 -35.24335 -72.38415 7027 ft 116 kts 198°
2026-05-06 17:31 -35.25099 -72.38746 7027 ft 116 kts 198°
2026-05-06 17:32 -35.25865 -72.39078 7027 ft 116 kts 198°
2026-05-06 17:32 -35.26622 -72.39407 7027 ft 116 kts 198°
2026-05-06 17:32 -35.27384 -72.39737 7027 ft 116 kts 198°
2026-05-06 17:32 -35.28150 -72.40070 7027 ft 116 kts 198°
2026-05-06 17:33 -35.28906 -72.40398 7027 ft 116 kts 198°
2026-05-06 17:33 -35.29673 -72.40730 7027 ft 116 kts 198°
2026-05-06 17:33 -35.30431 -72.41059 7027 ft 116 kts 198°
2026-05-06 17:33 -35.31192 -72.41390 7027 ft 116 kts 198°
2026-05-06 17:34 -35.31954 -72.41721 7027 ft 116 kts 198°
2026-05-06 17:34 -35.32716 -72.42052 7027 ft 116 kts 198°
2026-05-06 17:34 -35.33481 -72.42384 7027 ft 116 kts 198°
2026-05-06 17:34 -35.34240 -72.42714 7027 ft 116 kts 198°
2026-05-06 17:35 -35.35008 -72.43047 7027 ft 116 kts 198°
2026-05-06 17:35 -35.35764 -72.43376 7027 ft 116 kts 198°
2026-05-06 17:35 -35.36527 -72.43707 7027 ft 116 kts 198°
2026-05-06 17:36 -35.38050 -72.44370 7027 ft 116 kts 198°
2026-05-06 17:36 -35.38813 -72.44702 7027 ft 116 kts 198°
2026-05-06 17:36 -35.39572 -72.45033 7027 ft 116 kts 198°
2026-05-06 17:36 -35.40336 -72.45364 7027 ft 116 kts 198°
2026-05-06 17:37 -35.41098 -72.45696 7027 ft 116 kts 198°
2026-05-06 17:37 -35.41859 -72.46028 7027 ft 116 kts 198°
2026-05-06 17:37 -35.42619 -72.46358 7026 ft 116 kts 198°
2026-05-06 17:37 -35.43377 -72.46689 7026 ft 116 kts 198°
2026-05-06 17:38 -35.44142 -72.47022 7026 ft 116 kts 198°
2026-05-06 17:38 -35.44907 -72.47356 7026 ft 116 kts 198°
2026-05-06 17:38 -35.45669 -72.47688 7026 ft 116 kts 198°
2026-05-06 17:38 -35.46429 -72.48019 7026 ft 116 kts 198°
2026-05-06 17:39 -35.47188 -72.48350 7026 ft 116 kts 198°
2026-05-06 17:39 -35.47945 -72.48679 7026 ft 116 kts 198°
2026-05-06 17:39 -35.48716 -72.49016 7026 ft 116 kts 198°
2026-05-06 17:39 -35.49471 -72.49345 7026 ft 116 kts 198°
2026-05-06 17:40 -35.50233 -72.49678 7026 ft 116 kts 198°
2026-05-06 17:40 -35.50992 -72.50009 7026 ft 116 kts 198°
2026-05-06 17:40 -35.51753 -72.50342 7026 ft 116 kts 198°
2026-05-06 17:40 -35.52519 -72.50676 7026 ft 116 kts 198°
2026-05-06 17:41 -35.53279 -72.51008 7026 ft 116 kts 198°
2026-05-06 17:41 -35.54034 -72.51337 7026 ft 116 kts 198°
2026-05-06 17:41 -35.54800 -72.51672 7026 ft 116 kts 198°
2026-05-06 17:41 -35.55563 -72.52006 7026 ft 116 kts 198°
2026-05-06 17:42 -35.56325 -72.52338 7026 ft 116 kts 198°
2026-05-06 17:42 -35.57082 -72.52670 7026 ft 116 kts 198°
2026-05-06 17:42 -35.57840 -72.53001 7026 ft 116 kts 198°
2026-05-06 17:42 -35.58604 -72.53335 7026 ft 116 kts 198°
2026-05-06 17:43 -35.59362 -72.53667 7026 ft 116 kts 198°
2026-05-06 17:43 -35.60120 -72.53998 7026 ft 116 kts 198°
2026-05-06 17:43 -35.60889 -72.54334 7026 ft 116 kts 198°
2026-05-06 17:43 -35.61649 -72.54667 7026 ft 116 kts 198°
2026-05-06 17:44 -35.62403 -72.54997 7026 ft 116 kts 198°
2026-05-06 17:44 -35.63171 -72.55334 7026 ft 116 kts 198°
2026-05-06 17:44 -35.63925 -72.55664 7026 ft 116 kts 198°
2026-05-06 17:44 -35.64689 -72.55998 7026 ft 116 kts 198°
2026-05-06 17:45 -35.65451 -72.56332 7026 ft 116 kts 198°
2026-05-06 17:45 -35.66213 -72.56666 7026 ft 116 kts 198°
2026-05-06 17:45 -35.66971 -72.56998 7026 ft 116 kts 198°
2026-05-06 17:45 -35.67733 -72.57333 7026 ft 116 kts 198°
2026-05-06 17:46 -35.68492 -72.57665 7026 ft 116 kts 198°
2026-05-06 17:46 -35.69249 -72.57997 7026 ft 116 kts 198°
2026-05-06 17:46 -35.70009 -72.58330 7026 ft 116 kts 198°
2026-05-06 17:46 -35.70773 -72.58665 7025 ft 116 kts 198°
2026-05-06 17:47 -35.71530 -72.58998 7025 ft 116 kts 198°
2026-05-06 17:47 -35.72293 -72.59332 7025 ft 116 kts 198°
2026-05-06 17:47 -35.73049 -72.59665 7025 ft 116 kts 198°
2026-05-06 17:47 -35.73812 -72.60000 7025 ft 116 kts 198°
2026-05-06 17:48 -35.74567 -72.60331 7025 ft 116 kts 198°
2026-05-06 17:48 -35.75331 -72.60667 7025 ft 116 kts 198°
2026-05-06 17:48 -35.76092 -72.61002 7025 ft 116 kts 198°
2026-05-06 17:48 -35.76848 -72.61334 7025 ft 116 kts 198°
2026-05-06 17:49 -35.77611 -72.61669 7025 ft 116 kts 198°
2026-05-06 17:49 -35.78365 -72.62000 7025 ft 116 kts 198°
2026-05-06 17:49 -35.79129 -72.62336 7025 ft 116 kts 198°
2026-05-06 17:49 -35.79886 -72.62669 7025 ft 116 kts 198°
2026-05-06 17:50 -35.80653 -72.63007 7025 ft 116 kts 198°
2026-05-06 17:50 -35.81414 -72.63341 7025 ft 116 kts 198°
2026-05-06 17:50 -35.82172 -72.63675 7025 ft 116 kts 198°
2026-05-06 17:50 -35.82933 -72.64010 7025 ft 116 kts 198°
2026-05-06 17:51 -35.83688 -72.64342 7025 ft 116 kts 198°
2026-05-06 17:51 -35.84450 -72.64678 7025 ft 116 kts 198°
2026-05-06 17:51 -35.85211 -72.65013 7025 ft 116 kts 199°
2026-05-06 17:51 -35.85969 -72.65347 7025 ft 116 kts 199°
2026-05-06 17:52 -35.86731 -72.65682 7026 ft 116 kts 199°
2026-05-06 17:52 -35.87481 -72.66013 7025 ft 116 kts 199°
2026-05-06 17:52 -35.88247 -72.66351 7025 ft 116 kts 199°
2026-05-06 17:52 -35.89008 -72.66686 7025 ft 116 kts 199°
2026-05-06 17:53 -35.89767 -72.67020 7025 ft 116 kts 199°
2026-05-06 17:53 -35.90527 -72.67356 7025 ft 116 kts 199°
2026-05-06 17:53 -35.91282 -72.67689 7025 ft 116 kts 199°
2026-05-06 17:53 -35.92049 -72.68027 7025 ft 116 kts 199°
2026-05-06 17:54 -35.92805 -72.68361 7025 ft 116 kts 199°
2026-05-06 17:54 -35.93565 -72.68697 7025 ft 116 kts 199°
2026-05-06 17:54 -35.94332 -72.69035 7025 ft 116 kts 199°
2026-05-06 17:54 -35.95086 -72.69368 7025 ft 116 kts 199°
2026-05-06 17:55 -35.95850 -72.69705 7025 ft 116 kts 199°
2026-05-06 17:55 -35.96605 -72.70039 7025 ft 116 kts 199°
2026-05-06 17:55 -35.97369 -72.70377 7025 ft 116 kts 199°
2026-05-06 17:55 -35.98122 -72.70709 7025 ft 116 kts 199°
2026-05-06 17:56 -35.98891 -72.71049 7025 ft 116 kts 199°
2026-05-06 17:56 -35.99651 -72.71385 7025 ft 116 kts 199°
2026-05-06 17:56 -36.00406 -72.71719 7025 ft 116 kts 199°
2026-05-06 17:56 -36.01169 -72.72057 7025 ft 116 kts 199°
2026-05-06 17:57 -36.01922 -72.72390 7025 ft 116 kts 199°
2026-05-06 17:57 -36.02680 -72.72725 7025 ft 116 kts 199°
2026-05-06 17:57 -36.03444 -72.73064 7025 ft 116 kts 199°
2026-05-06 17:57 -36.04207 -72.73402 7025 ft 116 kts 199°
2026-05-06 17:58 -36.04967 -72.73737 7025 ft 116 kts 199°
2026-05-06 17:58 -36.05721 -72.74071 7025 ft 116 kts 199°
2026-05-06 17:58 -36.06486 -72.74410 7025 ft 116 kts 199°
2026-05-06 17:58 -36.07241 -72.74744 7025 ft 116 kts 199°
2026-05-06 17:59 -36.08006 -72.75084 7025 ft 116 kts 199°
2026-05-06 17:59 -36.08764 -72.75420 7025 ft 116 kts 199°
2026-05-06 17:59 -36.09518 -72.75754 7025 ft 116 kts 199°
2026-05-06 17:59 -36.10274 -72.76090 7026 ft 116 kts 199°
2026-05-06 18:00 -36.11041 -72.76430 7028 ft 116 kts 199°
2026-05-06 18:00 -36.11798 -72.76765 7028 ft 116 kts 199°
2026-05-06 18:00 -36.12568 -72.77107 7028 ft 116 kts 199°
2026-05-06 18:00 -36.13329 -72.77445 7028 ft 117 kts 199°
2026-05-06 18:01 -36.14093 -72.77784 7028 ft 117 kts 199°
2026-05-06 18:01 -36.14850 -72.78120 7028 ft 117 kts 199°
2026-05-06 18:01 -36.15615 -72.78460 7028 ft 117 kts 199°
2026-05-06 18:01 -36.16387 -72.78803 7028 ft 117 kts 199°
2026-05-06 18:02 -36.17148 -72.79140 7028 ft 117 kts 199°
2026-05-06 18:02 -36.17906 -72.79478 7028 ft 117 kts 199°
2026-05-06 18:02 -36.18674 -72.79819 7028 ft 117 kts 199°
2026-05-06 18:02 -36.19434 -72.80157 7028 ft 117 kts 199°
2026-05-06 18:03 -36.20194 -72.80495 7028 ft 117 kts 199°
2026-05-06 18:03 -36.20961 -72.80836 7028 ft 117 kts 199°
2026-05-06 18:03 -36.21724 -72.81175 7028 ft 117 kts 199°
2026-05-06 18:03 -36.22492 -72.81516 7028 ft 117 kts 199°
2026-05-06 18:04 -36.23251 -72.81854 7028 ft 117 kts 199°
2026-05-06 18:04 -36.24014 -72.82194 7027 ft 117 kts 199°
2026-05-06 18:04 -36.24782 -72.82536 7027 ft 117 kts 199°
2026-05-06 18:04 -36.25541 -72.82874 7027 ft 116 kts 199°
2026-05-06 18:05 -36.26305 -72.83215 7027 ft 116 kts 199°
2026-05-06 18:05 -36.27064 -72.83553 7027 ft 116 kts 199°
2026-05-06 18:05 -36.27837 -72.83897 7027 ft 116 kts 199°
2026-05-06 18:05 -36.28595 -72.84235 7027 ft 116 kts 199°
2026-05-06 18:06 -36.29352 -72.84572 7027 ft 116 kts 199°
2026-05-06 18:06 -36.30121 -72.84915 7027 ft 116 kts 199°
2026-05-06 18:06 -36.30878 -72.85252 7027 ft 116 kts 199°
2026-05-06 18:06 -36.31646 -72.85595 7027 ft 116 kts 199°
2026-05-06 18:07 -36.32405 -72.85934 7027 ft 116 kts 199°
2026-05-06 18:07 -36.33175 -72.86279 7027 ft 116 kts 199°
2026-05-06 18:07 -36.33930 -72.86616 7027 ft 116 kts 199°
2026-05-06 18:07 -36.34699 -72.86961 7027 ft 116 kts 199°
2026-05-06 18:08 -36.35453 -72.87297 7027 ft 116 kts 199°
2026-05-06 18:08 -36.36222 -72.87640 7027 ft 116 kts 199°
2026-05-06 18:08 -36.36983 -72.87980 7027 ft 116 kts 199°
2026-05-06 18:08 -36.37741 -72.88319 7027 ft 116 kts 199°
2026-05-06 18:09 -36.38513 -72.88663 7027 ft 116 kts 199°
2026-05-06 18:09 -36.39273 -72.89004 7027 ft 116 kts 199°
2026-05-06 18:09 -36.40036 -72.89345 7027 ft 116 kts 199°
2026-05-06 18:09 -36.40792 -72.89683 7027 ft 116 kts 199°
2026-05-06 18:10 -36.41561 -72.90027 7027 ft 116 kts 199°
2026-05-06 18:10 -36.42322 -72.90367 7027 ft 116 kts 199°
2026-05-06 18:10 -36.43084 -72.90708 7027 ft 116 kts 199°
2026-05-06 18:10 -36.43847 -72.91049 7027 ft 116 kts 199°
2026-05-06 18:11 -36.44612 -72.91392 7027 ft 116 kts 199°
2026-05-06 18:11 -36.45371 -72.91731 7027 ft 116 kts 199°
2026-05-06 18:11 -36.46136 -72.92074 7027 ft 116 kts 199°
2026-05-06 18:11 -36.46894 -72.92414 7028 ft 116 kts 199°
2026-05-06 18:12 -36.47654 -72.92754 7050 ft 115 kts 199°
2026-05-06 18:12 -36.48408 -72.93092 7053 ft 116 kts 199°
2026-05-06 18:12 -36.49168 -72.93433 7054 ft 116 kts 199°
2026-05-06 18:12 -36.49922 -72.93771 7054 ft 116 kts 199°
2026-05-06 18:13 -36.50682 -72.94111 7054 ft 116 kts 199°
2026-05-06 18:13 -36.51448 -72.94455 7054 ft 116 kts 199°
2026-05-06 18:13 -36.52203 -72.94794 7054 ft 116 kts 199°
2026-05-06 18:13 -36.52973 -72.95139 7053 ft 116 kts 199°
2026-05-06 18:14 -36.53732 -72.95480 7053 ft 116 kts 199°
2026-05-06 18:14 -36.54494 -72.95821 7053 ft 116 kts 199°
2026-05-06 18:14 -36.55252 -72.96161 7053 ft 116 kts 199°
2026-05-06 18:14 -36.56016 -72.96505 7053 ft 116 kts 199°
2026-05-06 18:15 -36.56781 -72.96847 7053 ft 116 kts 199°
2026-05-06 18:15 -36.57541 -72.97189 7053 ft 116 kts 199°
2026-05-06 18:15 -36.58293 -72.97527 7053 ft 116 kts 199°
2026-05-06 18:15 -36.59054 -72.97869 7053 ft 116 kts 199°
2026-05-06 18:16 -36.59818 -72.98212 7053 ft 116 kts 199°
2026-05-06 18:16 -36.60569 -72.98550 7053 ft 116 kts 199°
2026-05-06 18:16 -36.61335 -72.98895 7053 ft 116 kts 199°
2026-05-06 18:16 -36.62081 -72.99230 7053 ft 115 kts 199°
2026-05-06 18:17 -36.62843 -72.99573 7053 ft 115 kts 199°
2026-05-06 18:17 -36.63594 -72.99911 7053 ft 115 kts 199°
2026-05-06 18:17 -36.64350 -73.00251 7053 ft 115 kts 199°
2026-05-06 18:17 -36.65107 -73.00592 7053 ft 115 kts 199°
2026-05-06 18:18 -36.65861 -73.00931 7053 ft 115 kts 199°
2026-05-06 18:18 -36.66612 -73.01269 7053 ft 115 kts 199°
2026-05-06 18:18 -36.67363 -73.01608 7053 ft 115 kts 199°
2026-05-06 18:18 -36.68104 -73.01942 7053 ft 115 kts 199°
2026-05-06 18:19 -36.68857 -73.02280 7053 ft 114 kts 199°
2026-05-06 18:19 -36.69618 -73.02625 6933 ft 115 kts 199°
2026-05-06 18:19 -36.70363 -73.02962 6807 ft 115 kts 199°
2026-05-06 18:19 -36.71110 -73.03301 6681 ft 114 kts 199°
2026-05-06 18:20 -36.71860 -73.03639 6554 ft 114 kts 199°
2026-05-06 18:20 -36.72602 -73.03974 6428 ft 114 kts 199°
2026-05-06 18:20 -36.73352 -73.04313 6301 ft 114 kts 199°
2026-05-06 18:20 -36.74094 -73.04648 6175 ft 114 kts 200°
2026-05-06 18:21 -36.74842 -73.04985 6071 ft 112 kts 200°
2026-05-06 18:21 -36.75505 -73.05427 6052 ft 106 kts 214°
2026-05-06 18:21 -36.76065 -73.05994 6051 ft 102 kts 218°
2026-05-06 18:21 -36.76595 -73.06579 6051 ft 100 kts 219°
2026-05-06 18:22 -36.77111 -73.07167 6053 ft 102 kts 219°
2026-05-06 18:22 -36.77636 -73.07775 6053 ft 104 kts 220°
2026-05-06 18:22 -36.78169 -73.08398 6053 ft 105 kts 220°
2026-05-06 18:22 -36.78701 -73.09026 6053 ft 106 kts 220°
2026-05-06 18:23 -36.79237 -73.09658 6052 ft 106 kts 220°
2026-05-06 18:23 -36.79771 -73.10290 6052 ft 106 kts 220°
2026-05-06 18:23 -36.80311 -73.10928 6005 ft 109 kts 220°
2026-05-06 18:23 -36.80874 -73.11594 5884 ft 115 kts 220°
2026-05-06 18:24 -36.81469 -73.12298 5754 ft 118 kts 221°
2026-05-06 18:24 -36.82058 -73.12998 5622 ft 115 kts 221°
2026-05-06 18:24 -36.82626 -73.13673 5495 ft 112 kts 221°
2026-05-06 18:24 -36.83184 -73.14336 5370 ft 110 kts 221°
2026-05-06 18:25 -36.83747 -73.15004 5247 ft 110 kts 221°
2026-05-06 18:25 -36.84301 -73.15659 5125 ft 110 kts 221°
2026-05-06 18:25 -36.84857 -73.16319 5002 ft 110 kts 221°
2026-05-06 18:25 -36.85412 -73.16976 4880 ft 110 kts 221°
2026-05-06 18:26 -36.85964 -73.17632 4759 ft 110 kts 221°
2026-05-06 18:26 -36.86515 -73.18286 4637 ft 110 kts 221°
2026-05-06 18:26 -36.87063 -73.18936 4517 ft 109 kts 221°
2026-05-06 18:26 -36.87615 -73.19591 4395 ft 109 kts 221°
2026-05-06 18:27 -36.88168 -73.20248 4273 ft 109 kts 221°
2026-05-06 18:27 -36.88722 -73.20906 4151 ft 109 kts 221°
2026-05-06 18:27 -36.89265 -73.21551 4032 ft 108 kts 221°
2026-05-06 18:27 -36.89813 -73.22201 3912 ft 108 kts 222°
2026-05-06 18:28 -36.90360 -73.22849 3781 ft 109 kts 221°
2026-05-06 18:28 -36.91076 -73.23122 3651 ft 113 kts 177°
2026-05-06 18:28 -36.91739 -73.22595 3572 ft 122 kts 134°
2026-05-06 18:28 -36.91951 -73.21542 3487 ft 136 kts 91°
2026-05-06 18:29 -36.91597 -73.20458 3440 ft 135 kts 63°
2026-05-06 18:29 -36.91085 -73.19470 3302 ft 136 kts 59°
2026-05-06 18:29 -36.90557 -73.18495 3166 ft 136 kts 58°
2026-05-06 18:29 -36.90022 -73.17515 3035 ft 136 kts 58°
2026-05-06 18:30 -36.89537 -73.16633 3011 ft 110 kts 58°
2026-05-06 18:30 -36.89119 -73.15872 2908 ft 103 kts 58°
2026-05-06 18:30 -36.88715 -73.15137 2848 ft 100 kts 58°
2026-05-06 18:30 -36.88327 -73.14432 2819 ft 97 kts 58°
2026-05-06 18:31 -36.87949 -73.13746 2798 ft 96 kts 58°
2026-05-06 18:31 -36.87557 -73.13058 2785 ft 95 kts 54°
2026-05-06 18:31 -36.87099 -73.12460 2782 ft 95 kts 42°
2026-05-06 18:31 -36.86580 -73.11961 2779 ft 95 kts 33°
2026-05-06 18:32 -36.86025 -73.11524 2777 ft 94 kts 28°
2026-05-06 18:32 -36.85448 -73.11123 2775 ft 94 kts 26°
2026-05-06 18:32 -36.84862 -73.10742 2769 ft 95 kts 24°
2026-05-06 18:32 -36.84261 -73.10368 2701 ft 100 kts 24°
2026-05-06 18:33 -36.83608 -73.09969 2497 ft 108 kts 24°
2026-05-06 18:33 -36.82919 -73.09550 2281 ft 109 kts 23°
2026-05-06 18:33 -36.82252 -73.09149 2125 ft 107 kts 23°
2026-05-06 18:33 -36.81564 -73.08739 1855 ft 113 kts 22°
2026-05-06 18:34 -36.80854 -73.08321 1533 ft 114 kts 14°
2026-05-06 18:34 -36.80188 -73.07957 1154 ft 96 kts 23°
2026-05-06 18:34 -36.79619 -73.07645 784 ft 88 kts 18°
2026-05-06 18:34 -36.79079 -73.07323 446 ft 79 kts 19°
2026-05-06 18:35 -36.78583 -73.07070 281 ft 72 kts 19°
2026-05-06 18:35 -36.78149 -73.06821 112 ft 68 kts 20°
2026-05-06 18:35 -36.77783 -73.06602 29 ft 47 kts 18°
2026-05-06 18:35 -36.77586 -73.06486 29 ft 23 kts 20°
2026-05-06 18:36 -36.77461 -73.06408 29 ft 20 kts 27°
2026-05-06 18:36 -36.77462 -73.06318 29 ft 10 kts 174°
2026-05-06 18:36 -36.77520 -73.06309 29 ft 11 kts 174°
2026-05-06 18:36 -36.77595 -73.06300 29 ft 11 kts 182°
2026-05-06 18:37 -36.77649 -73.06266 29 ft 8 kts 123°
2026-05-06 18:37 -36.77674 -73.06213 29 ft 7 kts 113°
2026-05-06 18:37 -36.77682 -73.06176 29 ft 11 kts 88°
2026-05-06 18:37 -36.77671 -73.06093 29 ft 10 kts 56°
2026-05-06 18:38 -36.77629 -73.06044 29 ft 3 kts 40°
2026-05-06 18:38 -36.77629 -73.06018 29 ft 1 kts 158°
2026-05-06 18:38 -36.77631 -73.06016 29 ft 0 kts 154°